User: anonymous   Login
Location: Unspecified
(0.0000°N, 0.0000°E)
Time: 06:41:09
(UTC+00:00)
Language:

STARLINK-31203 - Orbit

View from above orbital plane
View from above orbital plane
View from above satellite
View from above satellite

Ground track
Ground track

The orbit is defined by the following mean orbital elements,

1 58869U          26145.51579337 +.00000000 +00000-0 +75077-6 0 00009
2 58869  43.0015 171.4248 0001009 284.9158  75.1582 15.27568282    09
Epoch (UTC): 25 May 2026 12:22:44
Eccentricity: 0.0001009
inclination: 43.0015°
perigee height: 482 km
apogee height: 484 km
right ascension of ascending node: 171.4248°
argument of perigee: 284.9158°
revolutions per day: 15.27568282
mean anomaly at epoch: 75.1582°

The dashed part of the orbit path shows where the satellite is in the earth's shadow,  

DLR